Zurück zum Katalog

COSMOS 1581

AktivMilitärHEO
NORAD 15095·PAYLOAD·🇷🇺 Russia

Gestartet Jul 3, 1984 von Plesetsk Cosmodrome

Loading…

Nächste Überflüge (nächste 24 Stunden)

TLE

AlterndSource: Space-Track

Epoche: Aug 29, 2026, 12:04 UTC

1 15095U 84071A   26241.50343710  .00000688  00000-0  00000-0 0  9990
2 15095  67.5085  11.3890 6669058 359.6636 359.8566  1.99706445281933

Verfolge COSMOS 1581 in Echtzeit mit AllMySat

Download on the App Store